EW1998 Weather Reports


Display with metric or nautical units.
time (UTC)temp
F
wind
direction
speed
MPH
gust
MPH
rain 1hr
in
rain 24hr
in
rain mn
in
humidity
%
barometer
mb
20260507222242 37 246 0.0 1.0 0.00 0.00 0.00 72 1019.5
20260507220629 38 119 0.0 1.0 0.00 0.00 0.00 69 1019.4
20260507215822 39 269 0.0 2.0 0.00 0.00 0.00 67 1019.4
20260507215129 39 269 0.0 2.0 0.00 0.00 0.00 67 1019.4
20260507213602 40 275 0.0 2.0 0.00 0.00 0.00 68 1019.3
20260507212801 40 284 1.0 2.0 0.00 0.00 0.00 66 1019.2
20260507212102 40 284 1.0 2.0 0.00 0.00 0.00 66 1019.2
20260507211242 42 117 0.0 2.0 0.00 0.00 0.00 63 1019.0
20260507210800 42 117 0.0 2.0 0.00 0.00 0.00 63 1019.0
20260507205738 43 129 0.0 2.0 0.00 0.00 0.00 59 1018.9
20260507205029 43 129 0.0 2.0 0.00 0.00 0.00 59 1018.9
20260507204224 45 212 0.0 3.0 0.00 0.00 0.00 54 1018.7
20260507203740 45 212 0.0 3.0 0.00 0.00 0.00 54 1018.7
20260507202002 46 49 0.0 4.0 0.00 0.00 0.00 54 1018.5
20260507200501 47 57 0.0 3.0 0.00 0.00 0.00 47 1018.5
20260507195709 49 16 2.0 4.0 0.00 0.00 0.00 42 1018.2
20260507195004 49 16 2.0 4.0 0.00 0.00 0.00 42 1018.2
20260507193503 49 141 0.0 4.0 0.00 0.00 0.00 46 1018.2
20260507192728 52 12 2.0 6.0 0.00 0.00 0.00 40 1017.8
20260507191955 52 12 2.0 6.0 0.00 0.00 0.00 40 1017.8
20260507191144 53 346 0.0 10.0 0.00 0.00 0.00 38 1017.6
20260507190656 53 346 0.0 10.0 0.00 0.00 0.00 38 1017.6
20260507184931 54 190 1.0 9.0 0.00 0.00 0.00 36 1017.3
20260507183431 55 102 3.0 8.0 0.00 0.00 0.00 37 1017.2
20260507181931 56 175 4.0 9.0 0.00 0.00 0.00 36 1017.1
20260507181148 57 111 3.0 11.0 0.00 0.00 0.00 35 1016.9
20260507180429 57 111 3.0 11.0 0.00 0.00 0.00 35 1016.9
20260507174902 58 180 5.0 8.0 0.00 0.00 0.00 35 1016.7
20260507173403 59 126 2.0 14.0 0.00 0.00 0.00 35 1016.6
20260507171902 58 96 6.0 13.0 0.00 0.00 0.00 36 1016.5
20260507170401 59 130 6.0 13.0 0.00 0.00 0.00 34 1016.3
20260507164903 60 154 3.0 12.0 0.00 0.00 0.00 32 1016.3
20260507164050 62 187 0.0 5.0 0.00 0.00 0.00 26 1016.2
20260507163354 62 187 0.0 5.0 0.00 0.00 0.00 26 1016.2
20260507161850 61 61 2.0 5.0 0.00 0.00 0.00 28 1016.1
20260507161035 62 1 1.0 6.0 0.00 0.00 0.00 29 1016.3
20260507160541 62 1 1.0 6.0 0.00 0.00 0.00 29 1016.3
20260507160238 61 87 3.0 7.0 0.00 0.00 0.00 29 1016.3
20260507154830 61 87 3.0 7.0 0.00 0.00 0.00 29 1016.3
20260507153329 61 114 6.0 9.0 0.00 0.00 0.00 28 1016.4
20260507152521 60 91 5.0 9.0 0.00 0.00 0.00 28 1016.3
20260507151822 60 91 5.0 9.0 0.00 0.00 0.00 28 1016.3
20260507150302 62 80 2.0 7.0 0.00 0.00 0.00 29 1016.2
20260507144801 60 107 4.0 5.0 0.00 0.00 0.00 31 1016.4
20260507143251 61 19 2.0 8.0 0.00 0.00 0.00 29 1016.4
20260507142441 61 214 0.0 11.0 0.00 0.00 0.00 32 1016.5
20260507141954 61 214 0.0 11.0 0.00 0.00 0.00 32 1016.5
20260507140936 60 19 2.0 7.0 0.00 0.00 0.00 31 1016.4
20260507140229 60 19 2.0 7.0 0.00 0.00 0.00 31 1016.4
20260507134730 60 12 3.0 5.0 0.00 0.00 0.00 31 1016.5
20260507133926 60 8 1.0 5.0 0.00 0.00 0.00 31 1016.5
20260507133230 60 8 1.0 5.0 0.00 0.00 0.00 31 1016.5
20260507131727 60 197 2.0 5.0 0.00 0.00 0.00 29 1016.6
20260507130202 58 89 3.0 8.0 0.00 0.00 0.00 29 1016.6
20260507124702 58 91 1.0 9.0 0.00 0.00 0.00 29 1016.7
20260507123852 59 178 3.0 9.0 0.00 0.00 0.00 31 1016.7
20260507123155 59 178 3.0 9.0 0.00 0.00 0.00 31 1016.7
20260507122333 59 181 0.0 10.0 0.00 0.00 0.00 31 1016.8
20260507121630 59 181 0.0 10.0 0.00 0.00 0.00 31 1016.8
20260507120130 58 160 5.0 11.0 0.00 0.00 0.00 32 1016.8
20260507114629 58 149 2.0 10.0 0.00 0.00 0.00 34 1016.8
20260507113129 57 189 4.0 8.0 0.00 0.00 0.00 32 1016.8
20260507113019 58 298 0.0 6.0 0.00 0.00 0.00 34 1016.9
20260507112605 58 298 0.0 6.0 0.00 0.00 0.00 34 1016.9
20260507104601 55 180 2.0 6.0 0.00 0.00 0.00 32 1016.9
20260507103754 55 200 4.0 6.0 0.00 0.00 0.00 33 1016.9
20260507103050 55 200 4.0 6.0 0.00 0.00 0.00 33 1016.9
20260507101530 54 228 2.0 9.0 0.00 0.00 0.00 35 1016.9
20260507100719 54 247 9.0 10.0 0.00 0.00 0.00 35 1016.8
20260507100236 54 247 9.0 10.0 0.00 0.00 0.00 35 1016.8
20260507095418 54 315 4.0 6.0 0.00 0.00 0.00 33 1016.8
20260507095157 54 315 4.0 6.0 0.00 0.00 0.00 33 1016.8
20260507093002 53 334 2.0 8.0 0.00 0.00 0.00 35 1016.8
20260507091453 54 149 3.0 9.0 0.00 0.00 0.00 36 1016.9
20260507090645 53 323 2.0 9.0 0.00 0.00 0.00 38 1017.0
20260507090153 53 323 2.0 9.0 0.00 0.00 0.00 38 1017.0
20260507084431 52 214 2.0 7.0 0.00 0.00 0.00 36 1017.1
20260507082930 51 206 3.0 8.0 0.00 0.00 0.00 36 1017.1
20260507082127 51 292 2.0 11.0 0.00 0.00 0.00 41 1017.0
20260507081429 51 292 2.0 11.0 0.00 0.00 0.00 41 1017.0
20260507081328 49 285 5.0 10.0 0.00 0.00 0.00 41 1017.0
20260507075928 49 285 5.0 10.0 0.00 0.00 0.00 41 1017.0
20260507074402 49 318 2.0 11.0 0.00 0.00 0.00 44 1016.9
20260507073600 48 269 5.0 9.0 0.00 0.00 0.00 44 1016.8
20260507073115 48 269 5.0 9.0 0.00 0.00 0.00 44 1016.8
20260507071354 47 226 2.0 10.0 0.00 0.00 0.00 45 1016.9
20260507065830 47 274 2.0 12.0 0.00 0.00 0.00 45 1016.9
20260507064330 46 231 5.0 8.0 0.00 0.00 0.00 47 1016.9
20260507063522 44 178 2.0 6.0 0.00 0.00 0.00 54 1017.0
20260507062826 44 178 2.0 6.0 0.00 0.00 0.00 54 1017.0
20260507062715 42 182 1.0 5.0 0.00 0.00 0.00 57 1016.9
20260507061519 42 182 1.0 5.0 0.00 0.00 0.00 57 1016.9
20260507061143 40 315 0.0 3.0 0.00 0.00 0.00 61 1016.9
20260507055801 40 315 0.0 3.0 0.00 0.00 0.00 61 1016.9
20260507054303 39 10 1.0 4.0 0.00 0.00 0.00 65 1016.9
20260507052751 38 273 1.0 4.0 0.00 0.00 0.00 63 1016.9
20260507051923 36 321 0.0 5.0 0.00 0.00 0.00 67 1016.8
20260507051229 36 321 0.0 5.0 0.00 0.00 0.00 67 1016.8
20260507045729 34 297 4.0 6.0 0.00 0.00 0.00 71 1016.6
20260507044202 33 238 3.0 6.0 0.00 0.00 0.00 69 1016.4
20260507043423 31 74 0.0 2.0 0.00 0.00 0.00 79 1016.4
20260507042701 31 74 0.0 2.0 0.00 0.00 0.00 79 1016.4
20260507041202 30 37 0.0 2.0 0.00 0.00 0.00 79 1016.4
20260507035701 30 212 0.0 2.0 0.00 0.00 0.00 79 1016.2
20260507034858 30 34 0.0 2.0 0.00 0.00 0.00 78 1016.1
20260507034203 30 34 0.0 2.0 0.00 0.00 0.00 78 1016.1
20260507032702 30 236 1.0 2.0 0.00 0.00 0.00 80 1016.0
20260507031903 29 202 0.0 1.0 0.00 0.00 0.00 79 1015.9
20260507031412 29 202 0.0 1.0 0.00 0.00 0.00 79 1015.9
20260507030413 30 340 0.0 2.0 0.00 0.00 0.00 77 1015.9
20260507025913 30 340 0.0 2.0 0.00 0.00 0.00 77 1015.9
20260507024855 30 310 0.0 2.0 0.00 0.00 0.00 78 1015.7
20260507024146 30 310 0.0 2.0 0.00 0.00 0.00 78 1015.7
20260507022630 31 44 0.0 2.0 0.00 0.00 0.00 78 1015.6
20260507021101 32 117 1.0 2.0 0.00 0.00 0.00 75 1015.4
20260507015602 32 222 0.0 3.0 0.00 0.00 0.00 76 1015.3
20260507014059 32 300 0.0 1.0 0.00 0.00 0.00 76 1015.3
20260507013237 33 152 0.0 2.0 0.00 0.00 0.00 73 1015.3
20260507012529 33 152 0.0 2.0 0.00 0.00 0.00 73 1015.3
20260507011725 32 358 2.0 2.0 0.00 0.00 0.00 74 1015.1
20260507005529 33 180 0.0 2.0 0.00 0.00 0.00 71 1014.9
20260507004031 34 240 0.0 2.0 0.00 0.00 0.00 70 1014.9
20260507002531 34 193 0.0 3.0 0.00 0.00 0.00 72 1014.7
20260507001030 36 224 0.0 3.0 0.00 0.00 0.00 62 1014.6
20260506235529 37 328 0.0 4.0 0.00 0.00 0.00 62 1014.6
20260506235439 38 325 2.0 5.0 0.00 0.00 0.00 61 1014.4
20260506234241 38 325 2.0 5.0 0.00 0.00 0.00 61 1014.4
20260506232502 38 254 4.0 4.0 0.00 0.00 0.00 57 1014.4
20260506231002 38 26 2.0 3.0 0.00 0.00 0.00 58 1014.3
20260506230847 37 202 0.0 2.0 0.00 0.00 0.00 63 1014.2
20260506225458 37 202 0.0 2.0 0.00 0.00 0.00 63 1014.2
20260506223947 38 99 0.0 4.0 0.00 0.00 0.00 59 1014.1